Tracking 19245 objects as of 14-Aug-2018
HD Live streaming from Space Station
objects crossing your sky now

COSMOS 2363 (GLONASS)

Track COSMOS 2363 (GLONASS) now!
COSMOS 2363 (GLONASS) is classified as:


NORAD ID: 25594
Int'l Code: 1998-077B
Perigee: 19,087.1 km
Apogee: 19,186.7 km
Inclination: 63.3 °
Period: 675.7 minutes
Semi major axis: 25507 km
RCS: 3.981 m2 (large)
Launch date: December 30, 1998
Source: Commonwealth of Independent States (former USSR) (CIS)
Launch site: TYURATAM MISSILE AND SPACE COMPLEX (TTMTR)
SV:
aabbcc
Your satellite tracking list
Your tracking list is empty




NASA's NSSDC Master Catalog

Two Line Element Set (TLE):
1 25594U 98077B   18225.76023510 +.00000016 +00000-0 +00000-0 0  9995
2 25594 063.2615 161.5841 0019539 031.7443 245.3947 02.13103719152633
Source of the keplerian elements: AFSPC